Regional Weather Roundup
Issued by NWS Charleston, SC

Current Version | Previous Version | Graphics & Text | Print | Product List | Glossary On
Versions: 1 2 3 4 5 6 7 8 9 10 11 12 13 14 15 16 17 18 19 20 21 22 23 24 25 26 27 28 29 30 31 32 33 34 35 36 37 38 39 40 41 42 43 44 45 46 47 48 49 50
000
ASUS42 KCHS 262327
RWRCHS

REGIONAL WEATHER ROUNDUP
NATIONAL WEATHER SERVICE CHARLESTON SC
700 PM EDT FRI MAY 26 2017

NOTE: "FAIR" INDICATES FEW OR NO CLOUDS BELOW 12,000 FEET WITH NO
SIGNIFICANT WEATHER AND/OR OBSTRUCTIONS TO VISIBILITY.

NOT ALL STATIONS ARE QUALITY CONTROLLED. USE DATA WITH CAUTION...
ESPECIALLY DEWPOINT OBSERVATIONS.

SCZ027-030-031-034>040-042>050-270000-
...SOUTHEAST SOUTH CAROLINA...

CITY           SKY/WX    TMP DP  RH WIND       PRES   REMARKS
N CHARLESTON   MOSUNNY   82  53  36 W8        29.95S
WATERFRONT PRK   N/A     79  64  60 SW7G16    29.93S
JOHNS ISLAND   FAIR      81  64  57 SW3       29.96R
PINOPOLIS        N/A    N/A N/A N/A W12       29.88F
MONCKS CORNER  FAIR      79  52  38 SW3       29.95S
SUMMERVILLE    FAIR      81  54  39 W3        29.96S
BEAUFORT MCAS  SUNNY     83  55  38 W7        29.97S
BEAUFORT ARPT  FAIR      82  54  36 W9G16     29.97R
HILTON HEAD IS SUNNY     84  54  34 W6        29.98S
WALTERBORO     CLEAR     81  54  39 W6        29.97S
ALLENDALE      FAIR      81  55  41 VRB5      29.95F

...SOUTHERN MIDLANDS AND PEE DEE...

CITY           SKY/WX    TMP DP  RH WIND       PRES   REMARKS
GEORGETOWN     FAIR      79  54  41 W8        29.95S
KINGSTREE      FAIR      81  52  36 SW5       29.93S
ORANGEBURG     SUNNY     82  52  35 W9        29.95S
BARNWELL       FAIR      82  59  44 VRB6      29.96S
AIKEN          FAIR      79  57  47 W7        30.00S
MANNING        FAIR      81  59  47 W10G24    29.94S
COLUMBIA       MOSUNNY   83  53  35 W13       29.94S
SUMTER         SUNNY     82  54  38 W8        29.92S
FLORENCE       SUNNY     81  53  37 W14       29.92S
MYRTLE BEACH   SUNNY     82  57  42 W14G20    29.93
N MYRTLE BEACH SUNNY     81  55  40 W8        29.92R

$$

GAZ063-065-086>088-099>101-113>116-118-119-134>141-150-270000-
...SOUTHEAST GEORGIA...

CITY           SKY/WX    TMP DP  RH WIND       PRES   REMARKS
SAVANNAH ARPT  PTSUNNY   84  51  31 W10       29.98S
HUNTER AAF     SUNNY     84  60  45 W7        29.95F
FORT STEWART   SUNNY     84  53  33 W8        29.96F
STATESBORO     SUNNY     82  57  41 W5        29.98S
SYLVANIA       CLEAR     82  61  49 NW5       29.98F
CLAXTON        FAIR      82  60  46 CALM      29.99S

...CSRA...CENTRAL AND FAR SOUTHEAST GEORGIA...

CITY           SKY/WX    TMP DP  RH WIND       PRES   REMARKS
THOMSON        SUNNY     81  59  46 NW6       30.01F
AUGUSTA-BUSH   SUNNY     86  58  38 W9        29.95F
AUGUSTA-DANIEL SUNNY     84  56  38 VRB5      29.97S
SWAINSBORO     FAIR      82  59  44 W6        30.00S
VIDALIA        SUNNY     82  59  44 W3        30.00S
EASTMAN        FAIR      83  43  24 W3        30.02F
HAZLEHURST     FAIR      83  58  41 W5        29.99F
ALMA           MOSUNNY   84  55  36 NW8       30.00F
WAYCROSS       SUNNY     86  59  38 NW6       30.00S
JESUP          FAIR      84  50  30 NW7       30.00S
BAXLEY         FAIR      84  61  45 W3        30.00S
BRUNSWICK      SUNNY     84  59  42 W5        30.00S
SAINT SIMONS   SUNNY     79  62  56 S10       29.99S

$$

SCZ027-028-034-036>038-045-046-048>050-GAZ119-141-270000-
...LAKE AND SUPPLEMENTAL COASTAL OBSERVATIONS...

STATION/POSITION TIME  TEMP    WIND        PRES    WAVE   SWELL
                       AIR SEA DIR/SP/G            HT/PER HT/PER/DIR
                 (UTC) (F)     (DEG/KT/KT) (MB)    (FT/S) (FT/S/D)
WINYAH BAY       2245   81     280/  8     1013.0S
LAKE MURRAY      2230   80     250/  7/ 13 1013.2F
ACE BASIN NERRS  2245   83     260/  3     1015.0S
FORT PULASKI     2300   82     310/ 11/ 13 1015.2
SAPELO ISLAND    2300   84     290/  7     1015.0

$$

ANZ835-935-AMZ111-154-330-350-352-354-370-450-454-472-270000-
...C-MAN AND BUOY OBSERVATIONS...

STATION/POSITION TIME  TEMP    WIND        PRES    WAVE   SWELL
                       AIR SEA DIR/SP/G            HT/PER HT/PER/DIR
                 (UTC) (F)     (DEG/KT/KT) (MB)    (FT/S) (FT/S/D)
BUOY 41004       2310   74 75  230/ 16/ 17 1014.1
BUOY 41008       2250   77 78  190/ 10/ 12 1015.3F   2/ 7   2/130/ 7
FOLLY BEACH CMAN 2300   77     220/ 13/ 15 1015.1F
CAPERS NEARSHORE 2308   81 76  240/ 17/ 23 1013.8F
FRIPP NEARSHORE  2308   77 77  220/ 14/ 17 1014.5F


STATION/POSITION TIME  TEMP    WIND        PRES    WAVE   SWELL
                       AIR SEA DIR/SP/G            HT/PER HT/PER/DIR
                 (UTC) (F)     (DEG/KT/KT) (MB)    (FT/S) (FT/S/D)
5E ST. MARYS GA  2300      79                N/A     1/ 7
FRYING PAN BUOY  2310   74 75  230/ 17/ 21 1013.5
BUOY 41025       2250   76 80  250/ 17/ 21 1011.9R   6/ 7
CAPE LOOKOUT NC  2300   75     230/ 13/ 16 1012.0R
BUOY 41002       2250   77 77  250/ 12/ 14 1015.3R   5/ 7   3/200/ 7
BUOY 41010       2310   78 79  290/  8/ 12 1016.8
ST AUGUSTINE FL  2300   75 78  150/ 11/ 11 1017.0F


$$



USA.gov is the U.S. government's official web portal to all federal, state and local government web resources and services.